TimeMDT,TemperatureF,Dew PointF,Humidity,Sea Level PressureIn,VisibilityMPH,Wind Direction,Wind SpeedMPH,Gust SpeedMPH,PrecipitationIn,Events,Conditions,WindDirDegrees,DateUTC
12:15 AM,19.9,17.4,90,30.05,1.0,NE,4.6,-,N/A,,Overcast,50,2013-04-18 06:15:00
12:35 AM,19.2,16.7,90,30.05,1.0,East,4.6,-,N/A,,Overcast,90,2013-04-18 06:35:00
1:15 AM,19.2,16.7,90,30.05,1.5,Calm,Calm,-,N/A,,Overcast,0,2013-04-18 07:15:00
1:35 AM,18.9,15.8,88,30.05,1.8,Calm,Calm,-,N/A,,Overcast,0,2013-04-18 07:35:00
1:55 AM,18.5,16.2,91,30.05,1.5,Calm,Calm,-,N/A,,Overcast,0,2013-04-18 07:55:00
2:15 AM,18.3,15.8,90,30.05,1.8,Calm,Calm,-,N/A,,Overcast,0,2013-04-18 08:15:00
2:35 AM,18.1,15.6,90,30.04,2.5,Calm,Calm,-,N/A,,Overcast,0,2013-04-18 08:35:00
2:55 AM,18.3,15.8,90,30.04,3.0,Calm,Calm,-,N/A,,Overcast,0,2013-04-18 08:55:00
3:15 AM,18.3,15.4,89,30.04,4.0,Calm,Calm,-,N/A,,Overcast,0,2013-04-18 09:15:00
3:35 AM,18.3,14.9,86,30.03,5.0,Calm,Calm,-,N/A,,Overcast,0,2013-04-18 09:35:00
3:55 AM,18.0,15.3,89,30.03,7.0,Calm,Calm,-,N/A,,Overcast,0,2013-04-18 09:55:00
4:15 AM,17.2,14.9,91,30.03,7.0,Calm,Calm,-,N/A,,Overcast,0,2013-04-18 10:15:00
4:35 AM,15.1,13.1,92,30.03,7.0,Calm,Calm,-,N/A,,Overcast,0,2013-04-18 10:35:00
4:55 AM,15.4,12.9,90,30.04,7.0,Calm,Calm,-,N/A,,Overcast,0,2013-04-18 10:55:00
5:15 AM,16.5,14.2,90,30.03,5.0,Calm,Calm,-,N/A,,Overcast,0,2013-04-18 11:15:00
5:35 AM,15.4,12.4,88,30.04,10.0,West,4.6,-,N/A,,Overcast,280,2013-04-18 11:35:00
5:55 AM,15.4,13.1,90,30.05,7.0,Calm,Calm,-,N/A,,Overcast,0,2013-04-18 11:55:00
6:15 AM,14.9,12.4,90,30.05,7.0,Calm,Calm,-,N/A,,Overcast,0,2013-04-18 12:15:00
6:35 AM,14.0,10.9,88,30.06,10.0,West,3.5,-,N/A,,Mostly Cloudy,270,2013-04-18 12:35:00
6:55 AM,12.0,8.2,85,30.06,10.0,Calm,Calm,-,N/A,,Mostly Cloudy,0,2013-04-18 12:55:00
7:15 AM,13.6,10.8,88,30.07,10.0,Calm,Calm,-,N/A,,Overcast,0,2013-04-18 13:15:00
7:35 AM,15.8,12.4,86,30.07,10.0,Calm,Calm,-,N/A,,Overcast,0,2013-04-18 13:35:00
7:55 AM,17.2,13.1,84,30.08,7.0,Calm,Calm,-,N/A,,Overcast,0,2013-04-18 13:55:00
8:15 AM,18.5,13.5,81,30.08,10.0,Calm,Calm,-,N/A,,Scattered Clouds,0,2013-04-18 14:15:00
8:35 AM,18.7,13.6,81,30.08,10.0,Calm,Calm,-,N/A,,Scattered Clouds,0,2013-04-18 14:35:00
8:55 AM,19.2,14.0,80,30.09,10.0,Calm,Calm,-,N/A,,Scattered Clouds,0,2013-04-18 14:55:00
9:15 AM,20.8,12.9,71,30.09,10.0,Calm,Calm,-,N/A,,Clear,0,2013-04-18 15:15:00
9:35 AM,21.9,11.7,65,30.09,10.0,Calm,Calm,-,N/A,,Clear,0,2013-04-18 15:35:00
9:55 AM,23.4,10.6,58,30.09,10.0,NW,5.8,-,N/A,,Clear,310,2013-04-18 15:55:00
10:15 AM,24.6,10.9,56,30.09,10.0,North,4.6,-,N/A,,Clear,350,2013-04-18 16:15:00
10:35 AM,25.7,12.2,57,30.09,10.0,NNW,4.6,-,N/A,,Clear,330,2013-04-18 16:35:00
10:55 AM,27.7,14.4,57,30.09,10.0,North,5.8,-,N/A,,Mostly Cloudy,360,2013-04-18 16:55:00
11:15 AM,28.8,14.7,56,30.09,10.0,North,11.5,-,N/A,,Mostly Cloudy,360,2013-04-18 17:15:00
11:35 AM,30.2,13.3,49,30.09,10.0,North,11.5,17.3,N/A,,Mostly Cloudy,350,2013-04-18 17:35:00
11:55 AM,30.0,10.8,45,30.08,10.0,NNW,9.2,20.7,N/A,,Overcast,340,2013-04-18 17:55:00
12:15 PM,30.0,6.4,37,30.08,10.0,NNE,6.9,-,N/A,,Overcast,20,2013-04-18 18:15:00
12:35 PM,32.5,8.1,36,30.07,10.0,NNW,12.7,18.4,N/A,,Overcast,330,2013-04-18 18:35:00
12:55 PM,32.0,2.8,29,30.07,10.0,NNW,10.4,20.7,N/A,,Overcast,340,2013-04-18 18:55:00
1:15 PM,33.1,5.9,32,30.06,10.0,North,13.8,21.9,N/A,,Scattered Clouds,10,2013-04-18 19:15:00
1:35 PM,34.5,4.5,28,30.06,10.0,North,13.8,21.9,N/A,,Scattered Clouds,350,2013-04-18 19:35:00
1:55 PM,32.7,3.6,29,30.06,10.0,NW,6.9,24.2,N/A,,Scattered Clouds,310,2013-04-18 19:55:00
2:15 PM,33.4,2.7,27,30.07,10.0,WNW,10.4,-,N/A,,Mostly Cloudy,290,2013-04-18 20:15:00
2:35 PM,35.8,-0.4,22,30.07,10.0,NNW,15.0,31.1,N/A,,Overcast,330,2013-04-18 20:35:00
2:55 PM,34.9,-2.9,20,30.07,10.0,NW,10.4,18.4,N/A,,Mostly Cloudy,320,2013-04-18 20:55:00
3:15 PM,35.2,-3.1,20,30.07,10.0,NW,4.6,19.6,N/A,,Overcast,320,2013-04-18 21:15:00
3:35 PM,35.6,-2.4,20,30.08,10.0,WNW,9.2,20.7,N/A,,Mostly Cloudy,300,2013-04-18 21:35:00
3:55 PM,34.5,-4.2,19,30.07,10.0,North,12.7,24.2,N/A,,Mostly Cloudy,350,2013-04-18 21:55:00
4:15 PM,35.2,-1.7,21,30.08,10.0,North,16.1,24.2,N/A,,Scattered Clouds,350,2013-04-18 22:15:00
4:35 PM,36.0,-2.7,19,30.09,10.0,West,9.2,21.9,N/A,,Scattered Clouds,270,2013-04-18 22:35:00
4:55 PM,37.4,-0.9,20,30.09,10.0,West,15.0,20.7,N/A,,Scattered Clouds,280,2013-04-18 22:55:00
5:15 PM,37.4,-0.0,21,30.10,10.0,NNW,9.2,24.2,N/A,,Scattered Clouds,340,2013-04-18 23:15:00
5:35 PM,37.2,-2.9,18,30.11,10.0,NW,10.4,17.3,N/A,,Scattered Clouds,310,2013-04-18 23:35:00
5:55 PM,36.0,-5.4,17,30.12,10.0,WNW,6.9,19.6,N/A,,Scattered Clouds,300,2013-04-18 23:55:00
6:15 PM,35.1,2.8,26,30.13,10.0,WNW,13.8,28.8,N/A,,Clear,300,2013-04-19 00:15:00
6:35 PM,34.0,4.3,29,30.14,10.0,WNW,15.0,23.0,N/A,,Clear,290,2013-04-19 00:35:00
6:55 PM,34.2,-2.7,21,30.15,10.0,NW,11.5,-,N/A,,Clear,310,2013-04-19 00:55:00
7:15 PM,33.8,-2.4,21,30.16,10.0,WNW,11.5,-,N/A,,Clear,290,2013-04-19 01:15:00
7:35 PM,32.0,1.9,28,30.17,10.0,West,6.9,18.4,N/A,,Clear,280,2013-04-19 01:35:00
8:55 PM,29.3,3.2,33,30.23,10.0,NNW,8.1,-,N/A,,Clear,330,2013-04-19 02:55:00
9:15 PM,28.6,4.5,36,30.24,10.0,Calm,Calm,-,N/A,,Clear,0,2013-04-19 03:15:00
9:35 PM,28.2,4.8,37,30.25,10.0,NNW,9.2,-,N/A,,Clear,340,2013-04-19 03:35:00
9:55 PM,27.7,3.9,36,30.25,10.0,NW,11.5,18.4,N/A,,Clear,320,2013-04-19 03:55:00
10:15 PM,27.3,4.6,38,30.26,10.0,NW,16.1,23.0,N/A,,Clear,310,2013-04-19 04:15:00
10:35 PM,26.8,4.3,38,30.27,10.0,NW,9.2,-,N/A,,Clear,320,2013-04-19 04:35:00
10:55 PM,26.8,3.9,38,30.27,10.0,NW,9.2,-,N/A,,Clear,320,2013-04-19 04:55:00
11:15 PM,26.1,4.8,40,30.27,10.0,NNW,5.8,-,N/A,,Clear,330,2013-04-19 05:15:00
11:35 PM,25.9,4.5,40,30.27,10.0,NW,8.1,-,N/A,,Clear,310,2013-04-19 05:35:00
11:55 PM,25.7,4.5,40,30.27,10.0,NW,9.2,-,N/A,,Clear,310,2013-04-19 05:55:00